Flag for United Kingdom Weather past 2 weeks in Aylesbury, England, United Kingdom

Now
63 °F

Mild.


Feels Like: 63 °F
Forecast: 56 / 68 °F
Wind: 10 mph from Southwest

Location: High Wicombe Hqstc

Current Time: Aug 29, 2014 at 4:11:29 PM

Latest Report: Aug 29, 2014 at 3:00 PM


Visibility: 22 mi

Pressure: 29.90 "Hg

Humidity: 68%

Dew point: 52 °F

Location of AylesburyLocation

Historic Weather in Aylesbury — Graph

°F

Aylesbury temperature yesterday

Maximum temperature yesterday: 68 °F (at 2:00 PM)
Minimum temperature yesterday: 56 °F (at 11:00 PM)
Average temperature yesterday: 61 °F

Past Weeks' High & Low Weather Summary

 TemperatureHumidityPressure
High68 °F (Aug 28, 2:00 PM)100% (Aug 28, 4:00 AM)30.17 "Hg (Aug 28, 4:00 AM)
Low44 °F (Aug 24, 6:00 AM)46% (Aug 17, 7:00 PM)29.55 "Hg (Aug 25, 11:00 PM)
Average56 °F78%29.91 "Hg
* Reported Aug 14 2:00 PM — Aug 29 2:00 PM, Aylesbury, Weather by CustomWeather, © 2014

Note: Actual official high and low records may vary slightly from our data, if they occured in-between our weather recording intervals... More about our weather records

Advertising

Aylesbury weather history for previous 24 hours

 ConditionsComfort  
Time TempWeatherWind HumidityBarometerVisibility
2:00 PM
Aug 29
61 °FRain showers. Cloudy.8 mph70%29.91 "Hg12 mi
1:00 PM64 °FMild.10 mph64%29.90 "Hg15 mi
12:00 PM63 °FMild.12 mph64%29.90 "Hg22 mi
11:00 AM61 °FCool.10 mph74%29.90 "Hg18 mi
10:00 AM60 °FCool.9 mph80%29.90 "Hg19 mi
9:00 AM58 °FCool.8 mph85%29.89 "Hg18 mi
8:00 AM56 °FCool.10 mph91%29.90 "Hg9 mi
7:00 AM56 °FCool.8 mph94%29.89 "Hg7 mi
6:00 AM55 °FFog.7 mph96%29.89 "Hg5 mi
5:00 AM55 °FFog.9 mph95%29.89 "Hg5 mi
4:00 AM54 °FFog.9 mph95%29.89 "Hg6 mi
3:00 AM55 °FFog.8 mph95%29.89 "Hg6 mi
2:00 AM56 °FFog.8 mph94%29.90 "Hg6 mi
1:00 AM55 °FFog.10 mph96%29.90 "Hg5 mi
12:00 AM55 °FCool.8 mph94%29.90 "Hg6 mi
11:00 PM
Aug 28
56 °FCool.7 mph89%29.89 "Hg9 mi
10:00 PM58 °FCool.7 mph82%29.89 "Hg12 mi
9:00 PM60 °FCool.8 mph76%29.88 "Hg14 mi
8:00 PM62 °FCool.8 mph75%29.86 "Hg17 mi
7:00 PM63 °FMild.7 mph76%29.85 "Hg18 mi
6:00 PM64 °FMild.5 mph83%29.85 "Hg15 mi
5:00 PM64 °FMild.8 mph87%29.85 "Hg19 mi
4:00 PM62 °FLight mixture of precip. Cloudy.8 mph87%29.86 "Hg2 mi
Weather by CustomWeather, © 2014

See weather overviewHow to use our weather pages